English version (google)  Retour à l'accueil Ecrire à l'auteur du site Runraid : Michel Jourdan


 Visitez La Boutique 



Les prochaines courses


Les derniers résultats

cliquez pour visualiser la page complète relatant la chronologie des éruptions du Piton de la Fournaise
éruptions Piton de la Fournaise


Ile de La Réunion

 Diagonale des Fous 

Ecrire au créateur du site : Michel Jourdan
Contact


2002-05-04 - 5eme Tchimbe Raid de la Martinique

Pour consulter le palmarès d'un coureur, un clic sur son nom !

Vous avez des remarques, corrections, ... sur ces résultats , un clic sur --> pour me transmettre toute information concernant les classements


5eme Tchimbe Raid de la Martinique - 2002 : classement des 249 finishers
Place Nom Temps Cat. Club Sexe Clt/cat.
Place Nom Temps Cat. Club Sexe Clt/cat.
1 Sherpa Dachhiri Dawa 7:41:47 M23 M 0
2 Libelle Cleo 8:07:45 M35 M 0
3 Parny Pascal 8:09:34 M 0
4 Laval Benoit 8:29:47 M23 M 0
5 Olmo Marco 8:30:50 M50 M 0
6 Peronet Marcel 8:51:34 M 0
7 Lecurieux Lafayette Alain 8:52:03 M35 M 0
8 Khabbache Mohamed 8:52:56 M 0
9 Torsiello Michel 9:14:01 M50 M 0
10 Fontaine Charles 9:20:46 M 0
11 Tramma Fred 9:34:01 M35 M 0
12 Barthelemy Christian 9:41:55 M23 M 0
13 Bidet Sebastien 9:43:50 M23 M 0
14 Pinel Fereol Georges 9:48:32 M40 M 0
15 Lukas Jens 9:50:01 M35 M 0
16 Moine Eric 9:56:50 M40 M 0
17 Favre Corinne 9:57:55 W23 F 1ere F 0
18 Uguen Philippe 9:58:33 M23 M 0
19 Drevon Bertrand 10:09:02 M 0
20 Lacrampe Louis Felix 10:09:02 M35 M 0
21 Dupont Luc 10:28:51 M23 M 0
22 Tabar Alex 10:31:47 M40 M 0
23 Vallotton Francois 10:53:50 M45 M 0
24 Danneau Philippe 10:57:06 M35 M 0
25 Gouacide Thierry 10:58:46 M 0
26 Dersion Rene 11:00:33 M 0
27 Ramanick Stelve 11:07:00 M23 M 0
28 Lysiak Sebastien 11:15:39 M 0
29 Usciati Philippe 11:17:29 M23 M 0
30 Hoarau Margot 11:19:08 W35 F 2 F 0
31 Evin Edouarville 11:19:34 M35 M 0
32 Grand Arnaud 11:20:16 M23 M 0
33 Emonides Marie Chantal 11:21:15 W35 F 3 F 0
34 Alter Julia 11:25:50 W23 F 4 F 0
35 Magnier Frederic 11:32:32 M 0
36 Valentin Alick 11:35:36 M 0
37 Janvier Roger 11:38:15 M40 M 0
38 Louis Christophe 11:40:39 M23 M 0
39 Mathis Sylvie 11:40:53 W23 F 5 F 0
40 Wojcik Jean Marc 11:45:33 M40 M 0
41 Sibra Jean Marc 11:45:33 M40 M 0
42 Pastour Jean Claude 11:45:45 M35 M 0
43 Bertaigne Marius 11:55:29 M 0
44 Ouaali Abdelkarim 11:56:07 M 0
45 Le Houedec Thierry 11:56:40 M35 M 0
46 Losbar Jose 12:00:55 M40 M 0
47 Serbin Tony Florent 12:01:43 M40 M 0
48 Beauduin Serge 12:02:05 M35 M 0
49 Verite Yann 12:02:36 M 0
50 Jean Elie Liliane 12:03:11 F 6 F 0
51 Pedrero Francis Alain 12:03:20 M40 M 0
52 Rossel Tsilla 12:03:29 W35 F 7 F 0
53 Lampert David 12:09:50 M 0
54 Peudepiece Olivier 12:12:32 M 0
55 Abdallah Jean Nicolas 12:12:44 M23 M 0
56 Cestor Ludovic 12:16:44 M 0
57 Laenen Pierre 12:20:52 M35 M 0
58 Galy Joel 12:20:52 M35 M 0
59 Deles Pierre 12:20:52 M40 M 0
60 Duvivier Germain 12:24:00 M 0
61 Christophe Jerome 12:26:47 M23 M 0
62 Samblas Juan 12:26:47 M 0
63 Duville Herve 12:26:47 M 0
64 Vercaemer Remy 12:29:05 M23 M 0
65 de Abreu Antonio 12:29:12 M23 M 0
66 Cantobion Tony 12:29:17 M40 M 0
67 Paugam Jean Jacques 12:29:48 M50 M 0
68 Turc Michael 12:32:58 M 0
69 Mogade Joseph 12:34:39 M 0
70 Datil Lucien 12:36:13 M45 M 0
71 Flahaut Yann 12:38:25 M 0
72 Amoros Manuel 12:42:12 M 0
73 Sery Mireille 12:42:32 W50 F 8 F 0
74 Mercier Frederic 12:43:38 M 0
75 Chauve Jean Francois 12:45:10 M 0
76 Gianelli Laurent 12:45:47 M 0
77 Pirson Thierry 12:47:53 M 0
78 Comier Tony 12:49:19 M35 M 0
79 Marie Louise Nicolas 12:49:19 M23 M 0
80 Perrin David 12:49:19 M 0
81 Cultier Charles 12:50:26 M 0
82 Lucas Maurice 12:51:30 M23 M 0
83 Gregoire Regis 12:51:50 M 0
84 Privat Patrick 12:53:29 M 0
85 Vertueux Jean Pierre 12:58:30 M 0
86 Castel David 12:58:43 M23 M 0
87 Danna Frederic 13:00:33 M 0
88 Josso Didier 13:05:42 M40 M 0
89 Aubin Alain 13:05:47 M 0
90 Lephay Christian 13:06:05 M 0
91 Bouture Tony 13:08:38 M 0
92 Emonides Michel 13:09:29 M23 M 0
93 Desfontaines Kelly 13:10:12 M 0
94 Bretagne Olivier 13:10:52 M23 M 0
95 Pultier Christophe 13:11:39 M 0
96 Roset Raymond 13:14:25 M 0
97 Bouly Pascale 13:15:50 W40 F 9 F 0
98 Zapha Gerard 13:15:50 M55 M 0
99 Tiburce Philippe Yvon 13:16:30 M 0
100 Arnaud Laurent 13:17:28 M35 M 0
101 Mariette Joel 13:17:28 M45 M 0
102 Bernollin Jean Christophe 13:21:26 M 0
103 Runigo Didier 13:27:37 M 0
104 Leforestier Christophe 13:29:11 M 0
105 Cepollaro Philippe 13:30:37 M 0
106 Norlain Mathieu 13:31:21 M 0
107 Robert Christophe 13:35:20 M23 M 0
108 Capgras Philippe 13:37:23 M50 M 0
109 Courjol Didier 13:40:19 M 0
110 Hanff Gilbert 13:42:27 M 0
111 Blondeau Patrick 13:43:36 M35 M 0
112 Mercier Franck 13:45:42 M 0
113 Touchard Nicolas 13:49:39 M 0
114 Pierre Louis Judickael 13:49:39 M 0
115 Weber Marianna 13:51:36 F 10 F 0
116 Quemeneur Michael 13:54:55 M 0
117 Chenu Guy 13:56:40 M45 M 0
118 Dewier Jean Christophe 14:02:07 M35 M 0
119 Dimbour David 14:02:07 M 0
120 Marcet Jean Francois 14:10:15 M23 M 0
121 Clerc Jerome 14:10:51 M23 M 0
122 Braco Gratien 14:12:02 M35 M 0
123 Marguerite Jean Max 14:12:02 M23 M 0
124 Duval Dominique 14:12:02 M40 M 0
125 Demoniere Edgard 14:13:13 M45 M 0
126 Dauch Alain 14:14:53 M50 M 0
127 Verdier Bruno 14:17:52 M23 M 0
128 Schlett Stefan 14:19:57 M40 M 0
129 Rueb Michael 14:19:57 M 0
130 Baladi Michele 14:21:19 W40 F 11 F 0
131 Detry Yves 14:21:21 M50 M 0
132 Louis Ferdinand Raymond 14:23:15 M40 M 0
133 Romagne Raymond 14:23:41 M40 M 0
134 Agasseau Philippe 14:25:58 M23 M 0
135 Meyer Lionel 14:28:44 M35 M 0
136 Thereau Michel 14:28:44 M35 M 0
137 Pivert Jacques 14:29:04 M35 M 0
138 N.N. Jocelin 14:33:17 M 0
139 LHeveder Thierry 14:34:55 M35 M 0
140 Exbrayat Andre 14:48:26 M 0
141 Lancon Jean Paul 14:48:26 M 0
142 Womba Eric 14:53:55 M 0
143 Lafleur Eric 14:58:14 M35 M 0
144 Morand Steed 15:01:13 M 0
145 Masniere Christophe 15:03:08 M 0
146 Prin Daniel 15:03:19 M40 M 0
147 Beras Jacques 15:04:40 M 0
148 Dupont Jean Francois 15:04:40 M 0
149 Wagner Rene 15:04:40 M 0
150 Choffel Francis 15:08:32 M55 M 0
151 Echelard Jean Paul 15:09:16 M 0
152 Avriama Reine May 15:12:14 W45 F 12 F 0
153 Avriama Nicolas 15:12:14 M50 M 0
154 Raab Walther 15:16:00 M55 M 0
155 Favre Patrice 15:19:26 M35 M 0
156 Poplineau David 15:20:00 M 0
157 Luc Jean Claude 15:21:50 M23 M 0
158 Seveau Francis 15:41:37 M 0
159 Bonnet Ligeon Michele 15:41:37 W45 F 13 F 0
160 Mathieu Leon 15:41:37 M 0
161 Fibleuil Yvon 15:42:46 M35 M 0
162 Fibleuil Martine 15:42:46 F 14 F 0
163 Morel Alban 15:46:03 M 0
164 Grajwoda Luc 15:50:07 M40 M 0
165 Piget Philippe 15:50:07 M45 M 0
166 Rohard Stephane 16:00:22 M23 M 0
167 Le Gall Jean Jacques 16:01:25 M23 M 0
168 Lacle Louis 16:02:30 M23 M 0
169 Letard Olivier 16:09:01 M 0
170 Weiss Charles 16:09:30 M50 M 0
171 Zitte Frederic 16:10:34 M 0
172 Poggioli Jean Paul 16:11:03 M 0
173 Adam Dominique 16:11:21 M 0
174 Hartog Thierry 16:18:11 M50 M 0
175 Lejeune Alain 16:19:14 M 0
176 Janvier Raymond 16:20:57 M35 M 0
177 Thomazon Eric 16:26:51 M 0
178 Sidibe Mamadi 16:26:51 M 0
179 Bini Jean Pierre 16:27:20 M 0
180 Joyau Jean Paul 16:29:34 M 0
181 Nayaradou Max 16:29:34 M40 M 0
182 Bourrier Fabrice 16:45:26 M23 M 0
183 Joyeux Jean Marc 16:53:52 M 0
184 Jacques Francis 16:57:31 M35 M 0
185 Pleyber Anne 16:57:52 W40 F 15 F 0
186 Descas Gerard 16:57:52 M45 M 0
187 Ourmiah Gerard 16:57:52 M 0
188 Dany Stephane 17:00:37 M 0
189 Bersan Yves 17:06:58 M 0
190 Trotignon Patrick 17:06:58 M40 M 0
191 Penhoat Daniel 17:06:58 M 0
192 Niedermaier Alexander 17:09:42 M23 M 0
193 Vonau Jean Thierry 17:09:42 M40 M 0
194 Chevrier Luc 17:14:42 M40 M 0
195 Accipe Jean Pierre 17:35:20 M 0
196 Lang Claude 17:40:05 M 0
197 Pulcher Patrice 17:40:05 M 0
198 Letord Armand 17:54:20 M 0
199 de Bondy Romain 17:54:20 M 0
200 Roger Fabienne 17:55:17 F 16 F 0
201 Guth Stephan 17:55:17 M35 M 0
202 Vaisse Thierry 17:55:18 M 0
203 Merceron Sophie 18:01:39 F 17 F 0
204 Flaux Eric 18:01:39 M 0
205 Surply Bernard 18:01:39 M 0
206 Martin Jean Pierre 18:01:39 M40 M 0
207 Boscalsder Aymeri 18:08:52 M 0
208 Mercey Bernard 18:27:58 M60 M 0
209 Menard Gilles 18:30:37 M 0
210 Vroust Alfred 18:32:25 M45 M 0
211 Gribling Pascal 18:32:33 M 0
212 Charlotte Gilles 18:34:52 M23 M 0
213 Jean Joachim Eurasie Roger 18:44:05 M 0
214 N. N. 18:44:47 M 0
215 Bazillio Pascal 18:53:16 M23 M 0
216 Gourdet Patrick 18:56:54 M40 M 0
217 Michon Sylvie 19:01:17 W45 F 18 F 0
218 Naide Alain 19:08:01 M45 M 0
219 Lecoustre Pascal 19:10:12 M 0
220 Villessot Jean Claude 19:10:12 M 0
221 Culioli Michel 19:11:06 M 0
222 Dupont Cyril 19:28:33 M 0
223 Etheve Patrick 19:28:33 M 0
224 Leonard Christian 19:28:56 M 0
225 Moiroux Marie Jose 19:28:56 W40 F 19 F 0
226 Moiroux Philippe 19:28:56 M 0
227 Le Forban Danielle 19:38:16 F 20 F 0
228 Reinbold Martial 19:42:51 M 0
229 Esquerre Hugues 19:42:51 M 0
230 Jacquinet Thomas 19:42:51 M 0
231 Laguerre Laure 19:46:45 F 21 F 0
232 Bazabas Jean Hugues 19:59:20 M 0
233 Mondesir Miguel 19:59:31 M 0
234 Nourel Patrick 20:04:03 M 0
235 Peterson Coo Marcia 20:04:05 F 22 F 0
236 Jeandet Pascal 20:05:13 M35 M 0
237 Vincent Fabrice 20:05:44 M 0
238 Philp Gilbert 20:05:44 M 0
239 Lawson Cyrille 20:05:44 M 0
240 Ravoteur Jean 20:15:12 M 0
241 Sicaud Bruno 20:15:31 M35 M 0
242 Plassard Philippe 20:15:31 M 0
243 Lavault Patrice 20:31:51 M 0
244 Carayol Bernard 20:31:51 M 0
245 Tangel Xavier 20:31:51 M55 M 0
246 Prioreau Patrick 20:32:27 M 0
247 Brousse Dominique 20:40:05 W45 F 23 F 0
248 Brousse Denis 20:40:05 M45 M 0
249 Poeyo Labora Jean Marc 21:03:42 M 0


ReferencementCe site est listé dans la catégorie Sport : Sports extrêmes Dictionnaire
| Accueil | La Réunion  Vue du ciel | Météo | Cyclones | Volcan | Cirques de Mafate , Cilaos , Salazie | Photos Randonnées | Randonnées Réunion: Randos Espiègle , Courses montagne | Diagonale des Fous |  Marathon des Sables | Voyages Les stats du site | Fonds écran | Plan du site | Blog de runraid | Galerie photos Sport Réunion |